TimeEDT,TemperatureF,Dew PointF,Humidity,Sea Level PressureIn,VisibilityMPH,Wind Direction,Wind SpeedMPH,Gust SpeedMPH,PrecipitationIn,Events,Conditions,WindDirDegrees,DateUTC
12:51 AM,60.1,57.9,93,30.24,9.0,Calm,Calm,-,N/A,,Clear,0,2013-08-21 04:51:00
1:33 AM,59.0,57.2,94,30.25,7.0,Calm,Calm,-,N/A,,Scattered Clouds,0,2013-08-21 05:33:00
1:42 AM,59.0,57.2,94,30.25,8.0,Calm,Calm,-,N/A,,Mostly Cloudy,0,2013-08-21 05:42:00
1:51 AM,59.0,57.9,96,30.24,4.0,Calm,Calm,-,N/A,,Mostly Cloudy,0,2013-08-21 05:51:00
2:01 AM,60.8,57.2,88,30.25,6.0,Calm,Calm,-,N/A,,Scattered Clouds,0,2013-08-21 06:01:00
2:12 AM,59.0,57.2,94,30.25,2.5,Calm,Calm,-,N/A,,Mostly Cloudy,0,2013-08-21 06:12:00
2:19 AM,59.0,57.2,94,30.25,0.8,Calm,Calm,-,N/A,,Mist,0,2013-08-21 06:19:00
2:51 AM,59.0,57.9,96,30.23,0.8,Calm,Calm,-,N/A,,Mist,0,2013-08-21 06:51:00
3:30 AM,59.0,57.2,94,30.25,1.2,Calm,Calm,-,N/A,,Overcast,0,2013-08-21 07:30:00
3:41 AM,59.0,57.2,94,30.25,0.8,Calm,Calm,-,N/A,,Mist,0,2013-08-21 07:41:00
3:51 AM,59.0,57.9,96,30.23,1.2,Calm,Calm,-,N/A,,Overcast,0,2013-08-21 07:51:00
4:08 AM,60.8,57.2,88,30.25,0.8,Calm,Calm,-,N/A,,Mist,0,2013-08-21 08:08:00
4:35 AM,59.0,57.2,94,30.25,1.0,Calm,Calm,-,N/A,,Overcast,0,2013-08-21 08:35:00
4:51 AM,59.0,57.9,96,30.22,1.0,Calm,Calm,-,N/A,,Mist,0,2013-08-21 08:51:00
5:23 AM,60.8,57.2,88,30.25,0.8,Calm,Calm,-,N/A,,Mist,0,2013-08-21 09:23:00
5:51 AM,59.0,57.9,96,30.23,0.8,Calm,Calm,-,N/A,,Mist,0,2013-08-21 09:51:00
6:03 AM,59.0,57.2,94,30.25,1.2,Calm,Calm,-,N/A,,Overcast,0,2013-08-21 10:03:00
6:42 AM,59.0,57.2,94,30.26,3.0,Calm,Calm,-,N/A,,Overcast,0,2013-08-21 10:42:00
6:51 AM,59.0,57.0,93,30.24,5.0,Calm,Calm,-,N/A,,Overcast,0,2013-08-21 10:51:00
7:48 AM,60.8,59.0,94,30.27,1.5,Calm,Calm,-,N/A,,Overcast,0,2013-08-21 11:48:00
7:51 AM,60.1,57.9,93,30.26,0.8,Calm,Calm,-,N/A,,Overcast,0,2013-08-21 11:51:00
8:20 AM,60.8,60.8,100,30.28,2.0,Calm,Calm,-,N/A,,Overcast,0,2013-08-21 12:20:00
8:28 AM,62.6,60.8,94,30.28,9.0,Calm,Calm,-,N/A,,Overcast,0,2013-08-21 12:28:00
8:51 AM,63.0,61.0,93,30.27,10.0,Calm,Calm,-,N/A,,Overcast,0,2013-08-21 12:51:00
9:46 AM,64.4,62.6,94,30.28,10.0,Calm,Calm,-,N/A,,Overcast,0,2013-08-21 13:46:00
9:51 AM,64.9,62.1,90,30.27,10.0,Calm,Calm,-,N/A,,Overcast,0,2013-08-21 13:51:00
10:51 AM,72.0,64.0,76,30.26,10.0,Calm,Calm,-,N/A,,Partly Cloudy,0,2013-08-21 14:51:00
11:51 AM,75.9,66.9,74,30.25,10.0,Calm,Calm,-,N/A,,Partly Cloudy,0,2013-08-21 15:51:00
12:51 PM,79.0,66.9,66,30.22,10.0,Calm,Calm,-,N/A,,Clear,0,2013-08-21 16:51:00
1:51 PM,79.0,66.9,66,30.21,10.0,Calm,Calm,-,N/A,,Mostly Cloudy,0,2013-08-21 17:51:00
2:51 PM,78.1,66.9,68,30.19,10.0,Calm,Calm,-,N/A,,Mostly Cloudy,0,2013-08-21 18:51:00
3:51 PM,73.9,69.1,85,30.17,10.0,South,6.9,19.6,0.02,Rain,Light Rain,180,2013-08-21 19:51:00
4:05 PM,73.4,66.2,78,30.20,10.0,SSW,10.4,-,0.00,,Overcast,210,2013-08-21 20:05:00
4:18 PM,71.6,64.4,78,30.19,10.0,South,5.8,-,0.00,Rain,Light Rain,170,2013-08-21 20:18:00
4:51 PM,71.1,64.9,81,30.18,10.0,South,6.9,-,0.01,,Overcast,180,2013-08-21 20:51:00
5:51 PM,69.1,66.0,90,30.19,8.0,Calm,Calm,-,0.01,Rain,Light Rain,0,2013-08-21 21:51:00
6:51 PM,70.0,66.9,90,30.18,10.0,SSW,3.5,-,0.14,,Partly Cloudy,210,2013-08-21 22:51:00
7:51 PM,69.1,66.0,90,30.18,10.0,Calm,Calm,-,N/A,,Mostly Cloudy,0,2013-08-21 23:51:00
8:35 PM,68.0,66.2,94,30.21,10.0,North,10.4,-,N/A,,Mostly Cloudy,350,2013-08-22 00:35:00
8:44 PM,69.8,64.4,83,30.21,10.0,North,13.8,-,N/A,,Mostly Cloudy,350,2013-08-22 00:44:00
8:51 PM,68.0,63.0,84,30.20,10.0,NNW,8.1,-,N/A,,Mostly Cloudy,340,2013-08-22 00:51:00
9:10 PM,66.2,62.6,88,30.21,10.0,North,3.5,-,N/A,,Mostly Cloudy,10,2013-08-22 01:10:00
9:51 PM,64.9,62.1,90,30.20,10.0,SW,3.5,-,N/A,,Partly Cloudy,230,2013-08-22 01:51:00
10:51 PM,64.0,62.1,93,30.19,10.0,Calm,Calm,-,N/A,,Mostly Cloudy,0,2013-08-22 02:51:00
11:51 PM,64.9,63.0,93,30.17,10.0,Calm,Calm,-,0.06,,Overcast,0,2013-08-22 03:51:00